User: anonymous   Login
Location: Unspecified
(0.0000°N, 0.0000°E)
Time: 16:37:11
(UTC+00:00)
Language:

AUTCUBE 2 - Orbit

View from above orbital plane
View from above orbital plane
View from above satellite
View from above satellite

Ground track
Ground track

The orbit data is extracted from the following two-line orbital elements,

1 43679U 18084J   22279.85578797  .00005579  00000-0  52831-3 0  9996
2 43679  97.9897  56.7561 0007637 283.2768  76.7599 14.94017493214573
Epoch (UTC): 06 October 2022 20:32:20
Eccentricity: 0.0007637
inclination: 97.9897°
perigee height: 580 km
apogee height: 591 km
right ascension of ascending node: 56.7561°
argument of perigee: 283.2768°
revolutions per day: 14.94017493
mean anomaly at epoch: 76.7599°
orbit number at epoch: 21457

The dashed part of the orbit path shows where the satellite is in the earth's shadow,  

DLR